| time (UTC) | temp F | wind direction | speed knots | gust knots | rain 1hr in | rain 24hr in | rain mn in | humidity % | barometer mb |
| 20260506231518 | 59 | 204 | 0.0 | 2.6 | 0.00 | 0.43 | 0.41 | 92 | 1004.5 |
| 20260506224525 | 60 | 121 | 0.0 | 6.1 | 0.00 | 0.43 | 0.41 | 92 | 1004.4 |
| 20260506223006 | 60 | 128 | 0.9 | 2.6 | 0.00 | 0.43 | 0.41 | 92 | 1004.4 |
| 20260506221511 | 60 | 188 | 0.0 | 4.3 | 0.00 | 0.43 | 0.41 | 92 | 1004.4 |
| 20260506220018 | 60 | 191 | 1.7 | 5.2 | 0.00 | 0.43 | 0.41 | 92 | 1004.4 |
| 20260506214524 | 60 | 126 | 0.9 | 3.5 | 0.00 | 0.43 | 0.41 | 92 | 1004.4 |
| 20260506213024 | 60 | 169 | 1.7 | 7.0 | 0.01 | 0.43 | 0.41 | 92 | 1004.5 |
| 20260506211509 | 59 | 171 | 1.7 | 4.3 | 0.02 | 0.43 | 0.41 | 93 | 1004.4 |
| 20260506210016 | 59 | 184 | 0.9 | 3.5 | 0.02 | 0.43 | 0.41 | 93 | 1004.5 |
| 20260506204521 | 59 | 167 | 0.9 | 3.5 | 0.05 | 0.43 | 0.41 | 93 | 1004.6 |
| 20260506203026 | 59 | 158 | 0.9 | 5.2 | 0.06 | 0.42 | 0.40 | 93 | 1004.7 |
| 20260506201524 | 59 | 238 | 1.7 | 3.5 | 0.07 | 0.41 | 0.39 | 93 | 1004.9 |
| 20260506200014 | 59 | 190 | 0.9 | 4.3 | 0.10 | 0.41 | 0.39 | 93 | 1005.0 |
| 20260506194518 | 60 | 163 | 0.9 | 4.3 | 0.12 | 0.38 | 0.36 | 93 | 1005.3 |
| 20260506193024 | 60 | 141 | 1.7 | 6.1 | 0.14 | 0.36 | 0.34 | 93 | 1005.4 |
| 20260506191524 | 60 | 207 | 0.9 | 5.2 | 0.14 | 0.34 | 0.32 | 93 | 1005.5 |
| 20260506190012 | 60 | 171 | 1.7 | 7.0 | 0.16 | 0.31 | 0.29 | 92 | 1005.6 |
| 20260506184520 | 61 | 154 | 2.6 | 4.3 | 0.11 | 0.26 | 0.24 | 92 | 1005.6 |
| 20260506183018 | 61 | 153 | 0.9 | 2.6 | 0.09 | 0.22 | 0.20 | 92 | 1005.6 |
| 20260506181504 | 61 | 160 | 0.9 | 3.5 | 0.10 | 0.20 | 0.18 | 92 | 1005.9 |
| 20260506180010 | 61 | 198 | 0.0 | 2.6 | 0.08 | 0.15 | 0.13 | 91 | 1006.2 |
| 20260506174514 | 61 | 177 | 0.9 | 6.1 | 0.10 | 0.15 | 0.13 | 91 | 1006.2 |
| 20260506173020 | 61 | 184 | 0.0 | 1.7 | 0.10 | 0.13 | 0.11 | 91 | 1006.6 |
| 20260506171536 | 61 | 183 | 0.0 | 1.7 | 0.08 | 0.10 | 0.08 | 90 | 1006.9 |
| 20260506170008 | 61 | 194 | 0.0 | 1.7 | 0.05 | 0.07 | 0.05 | 89 | 1007.1 |
| 20260506164528 | 62 | 184 | 0.0 | 1.7 | 0.03 | 0.05 | 0.03 | 87 | 1007.2 |
| 20260506163022 | 62 | 159 | 0.9 | 1.7 | 0.01 | 0.03 | 0.01 | 84 | 1007.1 |
| 20260506161535 | 63 | 156 | 0.9 | 4.3 | 0.00 | 0.02 | 0.00 | 82 | 1007.1 |
| 20260506160025 | 63 | 150 | 1.7 | 8.7 | 0.00 | 0.02 | 0.00 | 80 | 1007.2 |
| 20260506154510 | 63 | 166 | 1.7 | 5.2 | 0.00 | 0.02 | 0.00 | 80 | 1007.3 |
| 20260506153016 | 62 | 73 | 0.9 | 3.5 | 0.00 | 0.02 | 0.00 | 80 | 1007.5 |
| 20260506151520 | 62 | 181 | 0.9 | 5.2 | 0.00 | 0.02 | 0.00 | 80 | 1007.9 |
| 20260506150025 | 63 | 189 | 0.9 | 4.3 | 0.00 | 0.02 | 0.00 | 80 | 1008.0 |
| 20260506144527 | 62 | 203 | 0.9 | 5.2 | 0.00 | 0.02 | 0.00 | 80 | 1008.0 |
| 20260506143011 | 62 | 176 | 0.9 | 3.5 | 0.00 | 0.02 | 0.00 | 80 | 1008.0 |
| 20260506141516 | 62 | 240 | 0.9 | 6.1 | 0.00 | 0.02 | 0.00 | 80 | 1007.9 |
| 20260506140022 | 62 | 38 | 0.0 | 3.5 | 0.00 | 0.02 | 0.00 | 80 | 1008.1 |
| 20260506134555 | 62 | 223 | 0.9 | 6.1 | 0.00 | 0.02 | 0.00 | 81 | 1007.8 |
| 20260506133026 | 61 | 286 | 0.0 | 1.7 | 0.00 | 0.02 | 0.00 | 84 | 1007.8 |
| 20260506131514 | 60 | 304 | 0.0 | 0.0 | 0.00 | 0.02 | 0.00 | 85 | 1007.7 |
| 20260506130019 | 59 | 304 | 0.0 | 1.7 | 0.00 | 0.02 | 0.00 | 85 | 1007.9 |
| 20260506124521 | 58 | 261 | 0.0 | 1.7 | 0.00 | 0.02 | 0.00 | 86 | 1008.3 |
| 20260506123025 | 58 | 21 | 0.0 | 1.7 | 0.00 | 0.02 | 0.00 | 87 | 1008.5 |
| 20260506121527 | 57 | 178 | 0.0 | 1.7 | 0.00 | 0.02 | 0.00 | 89 | 1008.3 |
| 20260506120016 | 56 | 299 | 0.0 | 2.6 | 0.00 | 0.02 | 0.00 | 91 | 1008.6 |
| 20260506114532 | 54 | 285 | 0.0 | 0.9 | 0.00 | 0.02 | 0.00 | 93 | 1008.2 |
| 20260506113029 | 53 | 300 | 0.0 | 0.9 | 0.00 | 0.02 | 0.00 | 93 | 1008.4 |
| 20260506111525 | 53 | 5 | 0.0 | 0.0 | 0.00 | 0.02 | 0.00 | 94 | 1008.6 |
| 20260506110016 | 52 | 5 | 0.0 | 0.0 | 0.00 | 0.02 | 0.00 | 94 | 1008.8 |
| 20260506104518 | 52 | 222 | 0.0 | 0.0 | 0.00 | 0.02 | 0.00 | 94 | 1008.7 |
| 20260506103027 | 51 | 360 | 0.0 | 0.0 | 0.00 | 0.02 | 0.00 | 94 | 1008.7 |
| 20260506101526 | 51 | 360 | 0.0 | 0.0 | 0.00 | 0.02 | 0.00 | 94 | 1008.6 |
| 20260506100032 | 51 | 360 | 0.0 | 0.0 | 0.00 | 0.02 | 0.00 | 93 | 1008.3 |
| 20260506094514 | 51 | 360 | 0.0 | 0.0 | 0.00 | 0.02 | 0.00 | 93 | 1008.3 |
| 20260506093005 | 51 | 360 | 0.0 | 0.0 | 0.00 | 0.02 | 0.00 | 93 | 1008.2 |
| 20260506091506 | 51 | 360 | 0.0 | 1.7 | 0.00 | 0.02 | 0.00 | 92 | 1008.5 |
| 20260506090012 | 52 | 340 | 0.0 | 1.7 | 0.00 | 0.02 | 0.00 | 92 | 1008.3 |
| 20260506083010 | 52 | 300 | 0.0 | 1.7 | 0.00 | 0.02 | 0.00 | 91 | 1008.6 |
| 20260506081503 | 53 | 121 | 0.0 | 0.0 | 0.00 | 0.02 | 0.00 | 90 | 1008.5 |
| 20260506073014 | 54 | 121 | 0.0 | 0.0 | 0.00 | 0.02 | 0.00 | 88 | 1008.6 |
| 20260506071514 | 55 | 121 | 0.0 | 0.0 | 0.00 | 0.02 | 0.00 | 87 | 1008.6 |
| 20260506044520 | 59 | 173 | 0.0 | 1.7 | 0.00 | 0.02 | 0.00 | 80 | 1008.7 |
| 20260506043012 | 60 | 106 | 0.0 | 1.7 | 0.00 | 0.02 | 0.00 | 79 | 1008.6 |
| 20260506041515 | 60 | 93 | 0.0 | 1.7 | 0.00 | 0.02 | 0.00 | 78 | 1008.6 |
| 20260506040021 | 61 | 47 | 0.9 | 2.6 | 0.00 | 0.02 | 0.00 | 77 | 1008.7 |
| 20260506034514 | 61 | 277 | 0.0 | 3.5 | 0.00 | 0.02 | 0.02 | 76 | 1008.6 |
| 20260506033016 | 61 | 234 | 0.0 | 2.6 | 0.00 | 0.02 | 0.02 | 77 | 1008.6 |
| 20260506024534 | 61 | 55 | 0.0 | 1.7 | 0.00 | 0.02 | 0.02 | 93 | 1008.6 |
| 20260506023018 | 61 | 68 | 0.0 | 0.0 | 0.00 | 0.02 | 0.02 | 93 | 1008.6 |
| 20260506021520 | 61 | 46 | 0.0 | 0.0 | 0.00 | 0.02 | 0.02 | 92 | 1008.6 |
| 20260506013020 | 61 | 46 | 0.0 | 1.7 | 0.00 | 0.02 | 0.02 | 91 | 1008.3 |
| 20260506011551 | 61 | 46 | 0.0 | 1.7 | 0.00 | 0.02 | 0.02 | 91 | 1008.2 |
| 20260506010020 | 61 | 150 | 0.0 | 1.7 | 0.00 | 0.02 | 0.02 | 90 | 1008.0 |
| 20260506004517 | 62 | 173 | 0.0 | 0.0 | 0.00 | 0.02 | 0.02 | 90 | 1007.9 |
| 20260506001519 | 62 | 117 | 0.0 | 0.0 | 0.02 | 0.02 | 0.02 | 87 | 1007.6 |
| 20260506000042 | 63 | 117 | 0.0 | 1.7 | 0.02 | 0.02 | 0.02 | 86 | 1007.8 |
| 20260505234537 | 65 | 71 | 0.9 | 1.7 | 0.02 | 0.02 | 0.02 | 79 | 1007.5 |